Miscellaneous Local Product
Issued by NWS North Platte, NE

Home | Current Version | Previous Version | Graphics & Text | Print | Product List | Glossary On
Versions: 1 2 3 4 5 6 7 8 9 10 11 12 13 14 15 16 17 18 19 20 21 22 23 24 25 26 27 28 29 30 31 32 33 34 35 36 37 38 39 40 41 42 43 44 45 46 47 48 49 50
000
AXUS43 KLBF 260310
MISLBF


WESTERN AND NORTH CENTRAL NEBRASKA HOURLY WEATHER ROUNDUP
NATIONAL WEATHER SERVICE NORTH PLATTE NE
1000 PM CDT WED MAR 25 2015

***STATIONS NOT REPORTING VARIABLES SUCH AS SKY/WEATHER OR
PRESSURE ARE PROVIDED BY THE NEBRASKA DEPARTMENT OF
ROADS...RAWS...AND APRS NETWORKS...AND ARE NOT UNDER
NATIONAL WEATHER SERVICE QUALITY CONTROL***

...OBSERVATIONS IN AND NEAR THE EASTERN PANHANDLE OF NEBRASKA...

CITY           SKY/WX    TMP DP  RH WIND       PRES   REMARKS
PINE RIDGE     FAIR      28  20  71 E6        30.22R WCI  22
CHADRON        FAIR      29  21  72 CALM      30.22S
ALLIANCE       FAIR      33  20  58 NE3       30.22R
SIDNEY         FAIR      32  21  64 NW7       30.24R WCI  26
WHITECLAY        N/A     27  19  71 E5          N/A  WCI  21
CRESCENT LAKE    N/A     37  20  50 NE5G15      N/A  WCI  33
BIG SPRINGS      N/A     37  23  56 CALM        N/A
$$

...OBSERVATIONS IN NORTH CENTRAL NEBRASKA...

CITY           SKY/WX    TMP DP  RH WIND       PRES   REMARKS
VALENTINE      FAIR      28  20  71 W3        30.24R
THEDFORD       FAIR      33  23  68 NE3       30.25R
AINSWORTH      FAIR      33  22  64 NW5       30.23S WCI  29
O`NEILL        FAIR      31  22  68 NW6       30.23S WCI  25
ORD            FAIR      32  20  61 NW9       30.22R WCI  24
BROKEN BOW     FAIR      33  21  61 N5        30.23R WCI  29
BROWNLEE         N/A     33  23  68 N3          N/A
SPRINGVIEW       N/A     32  22  67 NW3         N/A
BREWSTER         N/A     35  24  64 E6          N/A  WCI  29
ROSE             N/A     35  26  68 SW7         N/A  WCI  30
NEWPORT          N/A     33  25  73 W3          N/A
SARGENT          N/A     35  23  62 CALM        N/A
COMSTOCK         N/A     38  24  56 E7          N/A  WCI  33
EWING            N/A     34  25  69 N3          N/A
$$

...OBSERVATIONS IN SOUTHWEST NEBRASKA AND FAR NORTHEAST COLORADO...

CITY           SKY/WX    TMP DP  RH WIND       PRES   REMARKS
WRAY           FAIR      33  26  76 CALM      30.24R
HOLYOKE        FAIR      34  27  75 CALM      30.23R
IMPERIAL         N/A     37  21  52 NE6       30.23R WCI  32
OGALLALA       CLOUDY    34  22  62 CALM      30.22S
NORTH PLATTE   FAIR      31  19  61 NE7       30.23R WCI  24
MCCOOK         FAIR      33  20  58 N7        30.23R WCI  27
LEXINGTON      FAIR      32  21  62 N7        30.23R WCI  26
PAXTON           N/A     39  22  51 N3          N/A
SUTHERLAND       N/A     32  16  51 CALM        N/A
BRADY            N/A     34  20  55 CALM        N/A
GOTHENBURG       N/A     41  21  44 N5          N/A
CALLAWAY         N/A     38  23  55 N10         N/A  WCI  31
$$

...NORTH PLATTE AREA...

CITY           SKY/WX    TMP DP  RH WIND       PRES   REMARKS
AIRPORT        FAIR      31  19  61 NE7       30.23R WCI  24
$$

...SOME WEATHER OBSERVATIONS FROM AROUND THE REGION...

CITY           SKY/WX    TMP DP  RH WIND       PRES   REMARKS
DENVER         MOCLDY    37  31  78 N10       30.27R WCI  30
LARAMIE        FAIR      25  15  66 W8        30.22R WCI  16
CHEYENNE       FAIR      29  27  92 S3        30.23R
SCOTTSBLUFF    FAIR      40  26  57 N6        30.23R
RAPID CITY     FAIR      29  22  75 NW3       30.20R
PIERRE         FAIR      31  18  58 N9        30.23R WCI  23
WINNER         FAIR      32  17  54 W5        30.24R WCI  27
SIOUX FALLS    FAIR      31  21  66 NW8       30.19R WCI  23
OMAHA          FAIR      37  30  75 CALM      30.18R
GRAND ISLAND   FAIR      33  24  69 N8        30.21R WCI  26
KANSAS CITY    LGT RAIN  41  40  96 N15       30.13R
WICHITA        RAIN      42  38  85 N18G29    30.13S FOG
HAYS           FAIR      39  30  70 NW8       30.22R WCI  34
LIBERAL        CLOUDY    37  30  75 N16G23    30.25R WCI  28
GOODLAND       FAIR      30  27  88 W7        30.24R WCI  23
$$



USA.gov is the U.S. government's official web portal to all federal, state and local government web resources and services.